Location: Gloden
(48.4833°N, 15.3167°E)
Time: 01:38:18
(UTC+00:00)

ITUPSAT 1 - Pass Details

Date: 19 May 2021
Orbit: 700 x 713 km, 98.6° (Epoch: 24 June)

Event Time Altitude Azimuth Distance (km) Brightness Sun altitude
Rises 19:40:26 0° 3° (N) 3,114 ? -9.0°
Reaches altitude 10° 19:43:08 10° 348° (NNW) 2,188 ? -9.3°
Maximum altitude 19:46:41 21° 300° (WNW) 1,555 ? -9.7°
Drops below altitude 10° 19:50:13 10° 252° (WSW) 2,171 ? -10.1°
Sets 19:52:55 0° 237° (WSW) 3,083 ? -10.4°
